Location: Dehesa de la Cepeda
(40.6574°N, 4.3013°W)
Time: 01:29:37
(UTC+00:00)

Nauka - Visible Passes

Search period start: 18 September 2021 00:00
Search period end: 28 September 2021 00:00
Orbit: 419 x 423 km, 51.6° (Epoch: 17 September)

Date Brightness Start Highest point End Pass type
(mag) Time Alt. Az. Time Alt. Az. Time Alt. Az.
18 Sep ? 18:48:50 10° SW 18:52:06 53° SE 18:55:24 10° ENE visible
18 Sep ? 20:26:17 10° W 20:29:08 25° NNW 20:29:30 24° NNW visible
19 Sep ? 19:39:00 10° W 19:42:07 34° NNW 19:44:44 13° NE visible
20 Sep ? 18:51:51 10° WSW 18:55:08 51° NNW 18:58:27 10° NE visible
20 Sep ? 20:30:26 10° NW 20:32:35 16° NNW 20:32:50 16° N visible
21 Sep ? 19:42:59 10° WNW 19:45:28 19° NNW 19:47:51 11° NNE visible
22 Sep ? 18:55:35 10° W 18:58:23 24° NNW 19:01:12 10° NE visible
22 Sep ? 20:34:31 10° NNW 20:35:46 13° N 20:35:46 13° N visible
23 Sep ? 19:47:10 10° NW 19:48:59 14° N 19:50:39 11° NNE visible
24 Sep ? 18:59:42 10° NW 19:01:49 15° NNW 19:03:56 10° NNE visible
24 Sep ? 20:37:53 10° NNW 20:38:29 12° NNW 20:38:29 12° NNW visible
25 Sep ? 19:50:53 10° NNW 19:52:33 13° N 19:53:18 12° NNE visible
26 Sep ? 19:03:43 10° NNW 19:05:21 13° N 19:06:59 10° NNE visible
26 Sep ? 20:40:41 10° NNW 20:41:06 12° NNW 20:41:06 12° NNW visible
27 Sep ? 19:53:53 10° NNW 19:55:54 16° N 19:55:54 16° N visible
